• In Uzbekistan
  • List of Countries
  • For 7 days
  • Water Temperature
  • Satellite Maps
  • Weather Map
  • Weather Widgets
  • user-avatar
    Login

    Hourly Weather Ndjbele

    Today, 20 November, Tuesday

    Time Temperature Precipitation Wind Pressure Humidity
    00:00 +21°C° 0 mm 0 mps 715 mmHg 72%
    01:00 +21°C° 0 mm 0 mps 715 mmHg 73%
    02:00 +20°C° 0 mm 0 mps 715 mmHg 74%
    03:00 +20°C° 0 mm 0 mps 715 mmHg 75%
    04:00 +20°C° 0 mm 0 mps 715 mmHg 75%
    05:00 +19°C° 0 mm 0 mps 716 mmHg 78%
    06:00 +23°C° 0 mm 1 mps 716 mmHg 72%
    07:00 +24°C° 0 mm 1 mps 716 mmHg 66%
    08:00 +26°C° 0 mm 1 mps 717 mmHg 60%
    09:00 +28°C° 0 mm 1 mps 717 mmHg 53%
    10:00 +30°C° 0 mm 1 mps 717 mmHg 46%
    11:00 +32°C° 0 mm 2 mps 717 mmHg 40%
    12:00 +34°C° 0 mm 2 mps 716 mmHg 39%
    13:00 +33°C° 0 mm 1 mps 716 mmHg 38%
    14:00 +34°C° 0 mm 1 mps 715 mmHg 38%
    15:00 +32°C° 0 mm 1 mps 715 mmHg 46%
    16:00 +30°C° 0 mm 1 mps 715 mmHg 55%
    17:00 +28°C° 0 mm 1 mps 715 mmHg 63%
    18:00 +27°C° 0 mm 1 mps 715 mmHg 65%
    19:00 +24°C° 0 mm 0 mps 716 mmHg 67%
    20:00 +23°C° 0 mm 0 mps 716 mmHg 69%
    21:00 +23°C° 0.1 mm 0 mps 716 mmHg 71%
    22:00 +23°C° 0.1 mm 0 mps 716 mmHg 73%
    23:00 +22°C° 0.1 mm 0 mps 716 mmHg 75%

    Tomorrow, 21 November, Wednesday

    Time Temperature Precipitation Wind Pressure Humidity
    00:00 +22°C° 0.1 mm 0 mps 716 mmHg 78%
    01:00 +24°C° 0.1 mm 1 mps 716 mmHg 81%
    02:00 +23°C° 0.1 mm 1 mps 716 mmHg 85%
    03:00 +23°C° 0 mm 1 mps 716 mmHg 86%
    04:00 +21°C° 0 mm 0 mps 716 mmHg 88%
    05:00 +21°C° 0 mm 0 mps 716 mmHg 90%
    06:00 +22°C° 0 mm 0 mps 716 mmHg 86%
    07:00 +23°C° 0 mm 0 mps 717 mmHg 82%
    08:00 +24°C° 0 mm 0 mps 717 mmHg 78%
    09:00 +26°C° 0 mm 0 mps 717 mmHg 69%
    10:00 +28°C° 0 mm 0 mps 718 mmHg 59%
    11:00 +30°C° 0 mm 0 mps 718 mmHg 49%
    12:00 +33°C° 0 mm 1 mps 717 mmHg 47%
    13:00 +33°C° 0 mm 1 mps 716 mmHg 44%
    14:00 +34°C° 0 mm 1 mps 716 mmHg 41%
    15:00 +32°C° 0 mm 1 mps 715 mmHg 49%
    16:00 +30°C° 0 mm 1 mps 715 mmHg 57%
    17:00 +26°C° 0 mm 0 mps 715 mmHg 65%
    18:00 +26°C° 0 mm 0 mps 715 mmHg 67%
    19:00 +25°C° 0 mm 0 mps 716 mmHg 70%
    20:00 +24°C° 0 mm 0 mps 716 mmHg 73%
    21:00 +23°C° 0 mm 0 mps 716 mmHg 76%
    22:00 +22°C° 0 mm 0 mps 716 mmHg 79%
    23:00 +22°C° 0 mm 0 mps 716 mmHg 83%

    Day after tomorrow, 22 November, Thursday

    Time Temperature Precipitation Wind Pressure Humidity
    00:00 +21°C° 0 mm 0 mps 716 mmHg 86%
    01:00 +21°C° 0 mm 0 mps 715 mmHg 89%
    02:00 +21°C° 0 mm 0 mps 715 mmHg 93%
    03:00 +20°C° 0 mm 0 mps 715 mmHg 94%
    04:00 +20°C° 0 mm 0 mps 715 mmHg 96%
    05:00 +20°C° 0 mm 0 mps 715 mmHg 98%
    06:00 +21°C° 0 mm 0 mps 716 mmHg 92%
    07:00 +23°C° 0 mm 0 mps 716 mmHg 87%
    08:00 +26°C° 0 mm 1 mps 717 mmHg 81%
    09:00 +28°C° 0 mm 1 mps 717 mmHg 73%
    10:00 +28°C° 0 mm 0 mps 717 mmHg 64%
    11:00 +30°C° 0 mm 0 mps 717 mmHg 55%
    12:00 +31°C° 0 mm 0 mps 716 mmHg 50%
    13:00 +32°C° 0 mm 0 mps 715 mmHg 45%
    14:00 +32°C° 0 mm 0 mps 715 mmHg 40%
    15:00 +30°C° 0 mm 0 mps 714 mmHg 49%
    16:00 +30°C° 0 mm 1 mps 714 mmHg 57%
    17:00 +28°C° 0 mm 1 mps 714 mmHg 65%
    18:00 +25°C° 0 mm 0 mps 714 mmHg 69%
    19:00 +24°C° 0 mm 0 mps 715 mmHg 74%
    20:00 +23°C° 0 mm 0 mps 715 mmHg 78%
    21:00 +22°C° 0 mm 0 mps 715 mmHg 81%
    22:00 +22°C° 0 mm 0 mps 715 mmHg 84%
    23:00 +21°C° 0 mm 0 mps 715 mmHg 88%

    23 November, Friday

    Time Temperature Precipitation Wind Pressure Humidity
    00:00 +21°C° 0 mm 0 mps 715 mmHg 91%
    01:00 +23°C° 0 mm 1 mps 714 mmHg 94%
    02:00 +23°C° 0 mm 1 mps 714 mmHg 97%
    03:00 +21°C° 0.1 mm 0 mps 714 mmHg 96%
    04:00 +21°C° 0.1 mm 0 mps 715 mmHg 95%
    05:00 +22°C° 0.1 mm 0 mps 715 mmHg 94%
    06:00 +23°C° 0 mm 0 mps 715 mmHg 91%
    07:00 +23°C° 0 mm 0 mps 716 mmHg 87%
    08:00 +26°C° 0 mm 1 mps 717 mmHg 84%
    09:00 +28°C° 0 mm 1 mps 717 mmHg 73%
    10:00 +31°C° 0 mm 1 mps 716 mmHg 62%
    11:00 +31°C° 0 mm 0 mps 716 mmHg 51%
    12:00 +31°C° 0 mm 0 mps 716 mmHg 47%
    13:00 +32°C° 0 mm 0 mps 715 mmHg 43%
    14:00 +33°C° 0 mm 0 mps 714 mmHg 40%
    15:00 +32°C° 0 mm 1 mps 714 mmHg 49%
    16:00 +30°C° 0 mm 1 mps 713 mmHg 57%
    17:00 +28°C° 0 mm 1 mps 713 mmHg 66%
    18:00 +27°C° 0.1 mm 1 mps 714 mmHg 72%
    19:00 +26°C° 0.1 mm 1 mps 715 mmHg 78%
    20:00 +25°C° 0.1 mm 1 mps 715 mmHg 83%
    21:00 +24°C° 0 mm 1 mps 715 mmHg 86%
    22:00 +24°C° 0 mm 1 mps 715 mmHg 89%
    23:00 +21°C° 0 mm 0 mps 715 mmHg 92%

    24 November, Saturday

    Time Temperature Precipitation Wind Pressure Humidity
    00:00 +21°C° 0 mm 0 mps 715 mmHg 94%
    01:00 +21°C° 0 mm 0 mps 714 mmHg 96%
    02:00 +20°C° 0 mm 0 mps 714 mmHg 98%
    03:00 +20°C° 0 mm 0 mps 714 mmHg 98%
    04:00 +20°C° 0 mm 0 mps 714 mmHg 98%
    05:00 +20°C° 0 mm 0 mps 715 mmHg 98%
    06:00 +22°C° 0 mm 0 mps 715 mmHg 92%
    07:00 +24°C° 0 mm 0 mps 716 mmHg 85%
    08:00 +25°C° 0 mm 0 mps 717 mmHg 78%
    09:00 +27°C° 0.5 mm 0 mps 717 mmHg 72%
    10:00 +29°C° 0.5 mm 0 mps 716 mmHg 65%
    11:00 +32°C° 0.5 mm 1 mps 716 mmHg 59%
    12:00 +33°C° 0 mm 1 mps 715 mmHg 53%
    13:00 +32°C° 0 mm 0 mps 715 mmHg 48%
    14:00 +32°C° 0 mm 0 mps 714 mmHg 43%
    15:00 +30°C° 0 mm 0 mps 714 mmHg 50%
    16:00 +28°C° 0 mm 0 mps 714 mmHg 58%
    17:00 +26°C° 0 mm 0 mps 714 mmHg 65%
    18:00 +25°C° 0 mm 0 mps 714 mmHg 68%
    19:00 +25°C° 0 mm 0 mps 715 mmHg 70%
    20:00 +24°C° 0 mm 0 mps 715 mmHg 73%
    21:00 +23°C° 0 mm 0 mps 715 mmHg 77%
    22:00 +22°C° 0 mm 0 mps 715 mmHg 81%
    23:00 +22°C° 0 mm 0 mps 715 mmHg 85%

    25 November, Sunday

    Time Temperature Precipitation Wind Pressure Humidity
    00:00 +21°C° 0 mm 0 mps 715 mmHg 89%
    01:00 +21°C° 0 mm 0 mps 714 mmHg 92%
    02:00 +21°C° 0 mm 0 mps 714 mmHg 96%
    03:00 +20°C° 0 mm 0 mps 714 mmHg 97%
    04:00 +20°C° 0 mm 0 mps 714 mmHg 98%
    05:00 +20°C° 0 mm 0 mps 715 mmHg 99%
    06:00 +22°C° 0 mm 0 mps 715 mmHg 92%
    07:00 +25°C° 0 mm 1 mps 716 mmHg 86%
    08:00 +26°C° 0 mm 1 mps 717 mmHg 80%
    09:00 +28°C° 0 mm 1 mps 716 mmHg 75%
    10:00 +29°C° 0 mm 1 mps 716 mmHg 69%
    11:00 +31°C° 0 mm 1 mps 716 mmHg 63%
    12:00 +31°C° 0.1 mm 1 mps 715 mmHg 63%
    13:00 +31°C° 0.1 mm 1 mps 714 mmHg 63%
    14:00 +31°C° 0.1 mm 1 mps 714 mmHg 63%
    15:00 +29°C° 1.2 mm 1 mps 714 mmHg 72%
    16:00 +26°C° 1.2 mm 0 mps 714 mmHg 81%
    17:00 +24°C° 1.2 mm 0 mps 714 mmHg 91%
    18:00 +23°C° 0.8 mm 0 mps 714 mmHg 92%
    19:00 +24°C° 0.8 mm 1 mps 715 mmHg 94%
    20:00 +24°C° 0.8 mm 1 mps 715 mmHg 96%
    21:00 +23°C° 0.1 mm 1 mps 715 mmHg 96%
    22:00 +23°C° 0.1 mm 1 mps 715 mmHg 97%
    23:00 +23°C° 0.1 mm 1 mps 715 mmHg 98%
    Show more